Location: Unspecified
(0.0000°N, 0.0000°E)
Time: 23:11:53
(UTC+00:00)

Altair - Pass Details

Date: 22 November 2019
Orbit: 1501 x 1683 km, 47.2° (Epoch: 02 July)

Event Time Altitude Azimuth Distance (km) Brightness Sun altitude
Rises 22:00:30 0° 210° (SSW) 4,841 10.6 -57.2°
Reaches altitude 10° 22:03:47 10° 205° (SSW) 3,829 9.9 -57.8°
Enters shadow 22:05:43 17° 201° (SSW) 3,256 9.4 -58.2°
